This is the latest recevied weather packets stored in our database for station/object KJ4EWA. If no packets are shown the sender has not sent any weather packets the latest 10 day(s).
| Time | Temp. | Humidity | Pressure | Rain* | Wind** | Luminosity | Snow |
|---|---|---|---|---|---|---|---|
| 1777661129 | 19.44° C | 94% | 1015.7 hPa | 0 mm | - | 64 W/m² | - |
| 1777660829 | 19.44° C | 93% | 1015.6 hPa | 0 mm | - | 66 W/m² | - |
| 1777660526 | 20° C | 95% | 1015.6 hPa | 0 mm | - | 76 W/m² | - |
| 1777660223 | 20° C | 96% | 1015.4 hPa | 0 mm | - | 137 W/m² | - |
| 1777659919 | 20° C | 96% | 1015.6 hPa | 0 mm | - | 111 W/m² | - |
| 1777659616 | 20° C | 95% | 1016 hPa | 0 mm | - | 64 W/m² | - |
| 1777659314 | 20.56° C | 96% | 1015.9 hPa | 0 mm | - | 92 W/m² | - |
| 1777659010 | 20° C | 95% | 1015.8 hPa | 0 mm | - | 98 W/m² | - |
| 1777658708 | 20.56° C | 96% | 1015.6 hPa | 0 mm | - | 103 W/m² | - |
| 1777658403 | 20° C | 96% | 1015.7 hPa | 0 mm | - | 111 W/m² | - |
| 1777658101 | 20° C | 95% | 1016 hPa | 0 mm | - | 67 W/m² | - |
| 1777657797 | 20.56° C | 95% | 1015.8 hPa | 0 mm | - | 135 W/m² | - |
| 1777657495 | 20.56° C | 97% | 1016 hPa | 0 mm | - | 175 W/m² | - |
| 1777657192 | 20.56° C | 97% | 1016 hPa | 0 mm | - | 187 W/m² | - |
| 1777656890 | 20.56° C | 96% | 1016 hPa | 0 mm | - | 159 W/m² | - |
| 1777656585 | 20° C | 96% | 1016.1 hPa | 0 mm | - | 109 W/m² | - |
| 1777656281 | 20° C | 97% | 1015.9 hPa | 0 mm | - | 147 W/m² | - |
| 1777655977 | 20.56° C | 99% | 1015.9 hPa | 0 mm | - | 196 W/m² | - |
| 1777655673 | 20° C | 98% | 1016.1 hPa | 0 mm | - | 135 W/m² | - |
| 1777655369 | 20° C | 98% | 1016.2 hPa | 0 mm | - | 71 W/m² | - |
| 1777655066 | 20° C | 98% | 1015.9 hPa | 0 mm | - | 100 W/m² | - |
| 1777654765 | 20° C | 99% | 1015.9 hPa | 0 mm | - | 201 W/m² | - |
| 1777654462 | 20° C | 99% | 1015.9 hPa | 0 mm | - | 203 W/m² | - |
| 1777654160 | 19.44° C | 99% | 1016.5 hPa | 0 mm | - | 75 W/m² | - |
| 1777653857 | 19.44° C | 99% | 1016.7 hPa | 0 mm | - | 53 W/m² | - |
* Rain latest hour (hover to see other rain measurements)
** Current wind speed in m/s (hover to see current wind gust speed)